Regional Weather Roundup
Issued by NWS

Home | Current Version | Previous Version | Text Only | Print | Product List | Glossary On
Versions: 1 2 3 4 5 6 7 8 9 10 11 12 13 14 15 16 17 18 19 20 21 22 23 24 25 26 27 28 29 30 31 32 33 34 35 36 37 38 39 40 41 42 43 44 45 46 47 48 49 50
000
ASUS46 KSEW 290310
RWRWA

WASHINGTON REGIONAL WEATHER ROUNDUP
NATIONAL WEATHER SERVICE SEATTLE WA
800 PM PDT SUN MAY 28 2017

NOTE:"FAIR" INDICATES FEW OR NO CLOUDS BELOW 12,000 FEET WITH NO
SIGNIFICANT WEATHER AND/OR OBSTRUCTIONS TO VISIBILITY.

WAZ507-509-555>559-290400-
SEATTLE, TACOMA, EVERETT, AND VICINITY

CITY           SKY/WX    TMP DP  RH WIND       PRES   REMARKS
EVERETT        CLEAR     69  52  54 NW6       30.03S
BOEING FIELD   CLEAR     75  53  46 NW7       29.99S
RENTON         CLEAR     79  55  43 NW12      29.98S
SEATAC AIRPORT PTCLDY    79  51  37 N8        30.01R
JBLM-MCCHORD   CLEAR     80  50  36 NE7       30.01R
PUYALLUP         N/A     77  52  41 VRB5      30.02R
BREMERTON      CLEAR     78  46  32 VRB6      30.03R
JBLM-FT LEWIS  CLEAR     71  55  55 VRB6      30.04R
TACOMA NARROWS CLEAR     76  50  40 NW5       30.02R
$$

WAZ001-503-506-510-514-515-290400-
NORTH INTERIOR

CITY           SKY/WX    TMP DP  RH WIND       PRES   REMARKS
BELLINGHAM     CLEAR     75  50  41 W6        30.01S
FRIDAY HARBOR  CLEAR     56  51  84 E3        30.04S
EASTSOUND      CLEAR     66  52  59 S5        30.02S
PORT ANGELES   PTCLDY    55  50  83 W3        30.06S
EDIZ HOOK      CLOUDY    50  48  94 W14       30.06S FOG
PORT TOWNSEND  FAIR      61  52  72 W3        30.04R
NAS WHIDBEY    PTCLDY    54  48  80 W7        30.08S
ARLINGTON      CLEAR     70  50  49 NW14      30.03R
BURLINGTON     CLEAR     66  57  72 CALM      30.02S
$$

WAZ020-022-039-040-504-511-512-290400-
SOUTHWEST INTERIOR

CITY           SKY/WX    TMP DP  RH WIND       PRES   REMARKS
SHELTON        CLEAR     64  53  67 SW16      30.03R
OLYMPIA        CLEAR     74  57  55 NE7       30.01R
CHEHALIS       FAIR      68  57  68 N8        30.03R
KELSO          CLEAR     61  53  75 NW7       30.06R
VANCOUVER      CLEAR     78  59  51 NW7       29.98R
SCAPPOOSE, OR  CLEAR     73  58  59 N10       29.98R
PORTLAND, OR   PTCLDY    78  57  48 NW5       29.98R
$$

WAZ021-516-517-290400-
WASHINGTON COAST

CITY           SKY/WX    TMP DP  RH WIND       PRES   REMARKS
FORKS          CLOUDY    52  49  89 W8        30.10R
HOQUIAM        CLOUDY    53  51  93 SW8       30.12R
ASTORIA, OR    CLOUDY    54  49  83 W5        30.13R
$$

WAZ019-023-024-040-567>569-290400-
CASCADE MOUNTAINS AND COLUMBIA GORGE

CITY           SKY/WX    TMP DP  RH WIND       PRES   REMARKS
STAMPEDE PASS  CLEAR     68  43  40 VRB3      30.17R
TROUTDALE, OR  CLEAR     80  59  48 SW8       29.97R
THE DALLES, OR CLEAR     87  49  26 NE6       29.92R
$$

WAZ026-027-041>044-520-521-290400-
EAST SLOPES

CITY           SKY/WX    TMP DP  RH WIND       PRES   REMARKS
OMAK           CLEAR     80  54  40 CALM      30.02S
WENATCHEE      CLEAR     83  45  26 SE6       30.00S
ELLENSBURG     CLEAR     80  53  39 E6        30.03R
YAKIMA         CLEAR     85  50  29 S5        29.99S
SUNNYSIDE ARPT CLEAR     80  51  36 N5        29.98S
$$

WAZ028-034-035-290400-
COLUMBIA BASIN

CITY           SKY/WX    TMP DP  RH WIND       PRES   REMARKS
EPHRATA        CLEAR     86  38  18 N6        30.01S
MOSES LAKE     CLEAR     86  43  22 N6        30.01S
PASCO          CLEAR     87  43  21 E3        29.96S
HERMISTON, OR  CLEAR     84  52  33 E5        29.96S
$$

WAZ036>038-290400-
NORTHEAST WASHINGTON

CITY           SKY/WX    TMP DP  RH WIND       PRES   REMARKS
SPOKANE GEIGER PTCLDY    80  45  28 W6        30.08S
SPOKANE FELTS  CLEAR     75  47  36 CALM      30.06R
FAIRCHILD AFB  CLEAR     78  50  37 W3        30.08S
COEURDALENE,ID CLEAR     77  51  40 NW6       30.08R
DEER PARK      CLEAR     79  46  31 CALM      30.07S
$$

WAZ029>033-290400-
SOUTHEAST WASHINGTON

CITY           SKY/WX    TMP DP  RH WIND       PRES   REMARKS
PULLMAN        CLEAR     74  45  35 N5        30.10S
LEWISTON, ID   CLEAR     85  42  22 E3        30.01S
WALLA WALLA    CLEAR     84  44  24 S5        30.00S
PENDLETON, OR  CLEAR     77  51  40 NE7       30.01S
$$



USA.gov is the U.S. government's official web portal to all federal, state and local government web resources and services.